This is the latest recevied weather packets stored in our database for station/object KC5DP. If no packets are shown the sender has not sent any weather packets the latest 10 day(s).
| Time | Temp. | Humidity | Pressure | Rain* | Wind** | Luminosity | Snow |
|---|---|---|---|---|---|---|---|
| 1777723619 | 11.67° C | 99% | 1014.3 hPa | 0 mm | - | 24 W/m² | - |
| 1777723315 | 11.67° C | 99% | 1014.2 hPa | 0 mm | - | 23 W/m² | - |
| 1777723013 | 11.67° C | 99% | 1014.1 hPa | 0 mm | - | 18 W/m² | - |
| 1777722709 | 11.67° C | 99% | 1013.9 hPa | 0 mm | - | 15 W/m² | - |
| 1777722405 | 11.67° C | 99% | 1013.8 hPa | 0 mm | - | 12 W/m² | - |
| 1777722103 | 11.67° C | 99% | 1013.8 hPa | 0 mm | - | 12 W/m² | - |
| 1777721800 | 11.67° C | 99% | 1013.8 hPa | 0 mm | - | 10 W/m² | - |
| 1777721498 | 11.67° C | 99% | 1013.8 hPa | 0 mm | - | 6 W/m² | - |
| 1777721196 | 11.67° C | 99% | 1013.5 hPa | 0 mm | - | 4 W/m² | - |
| 1777720893 | 11.67° C | 99% | 1013.8 hPa | 0 mm | - | 2 W/m² | - |
| 1777720591 | 11.67° C | 99% | 1013.7 hPa | 0 mm | - | 1 W/m² | - |
| 1777720288 | 11.67° C | 99% | 1013.5 hPa | 0 mm | - | 1 W/m² | - |
| 1777719986 | 11.67° C | 99% | 1013.7 hPa | 0 mm | - | 0 W/m² | - |
| 1777719683 | 11.67° C | 99% | 1013.7 hPa | 0 mm | - | 0 W/m² | - |
| 1777719380 | 11.67° C | 99% | 1013.8 hPa | 0 mm | - | 0 W/m² | - |
| 1777719077 | 11.67° C | 99% | 1013.6 hPa | 0 mm | - | 0 W/m² | - |
| 1777718774 | 11.67° C | 99% | 1013.5 hPa | 0 mm | - | 0 W/m² | - |
| 1777718472 | 11.67° C | 99% | 1013.4 hPa | 0 mm | - | 0 W/m² | - |
| 1777718169 | 11.67° C | 99% | 1013.6 hPa | 0 mm | - | 0 W/m² | - |
| 1777717867 | 11.11° C | 99% | 1013.4 hPa | 0 mm | - | 0 W/m² | - |
| 1777717563 | 11.11° C | 99% | 1013.4 hPa | 0 mm | - | 0 W/m² | - |
| 1777717260 | 11.11° C | 99% | 1013.2 hPa | 0 mm | - | 0 W/m² | - |
| 1777716958 | 11.11° C | 99% | 1013.2 hPa | 0 mm | - | 0 W/m² | - |
| 1777716656 | 11.11° C | 99% | 1013.3 hPa | 0 mm | - | 0 W/m² | - |
| 1777716355 | 11.11° C | 99% | 1013.1 hPa | 0 mm | - | 0 W/m² | - |
* Rain latest hour (hover to see other rain measurements)
** Current wind speed in m/s (hover to see current wind gust speed)